Rotterdam, Netherlands

9:59 AM CEST on August 29, 2016 (GMT +0200)
Rotterdam

Weather History for EHRD - September, 2013

Change the Weather History Date:

Friday, September 20, 2013

  Actual Average Record
Temperature  
Mean Temperature 56 °F -  
Max Temperature 61 °F 59 °F 78 °F (2003)
Min Temperature 50 °F 47 °F 37 °F (1997)
Degree Days  
Heating Degree Days 10    
Growing Degree Days 6 (Base 50)    
Moisture  
Dew Point 53 °F    
Average Humidity 83    
Maximum Humidity 100    
Minimum Humidity 64    
Precipitation  
Precipitation 0.00 in - - ()
Sea Level Pressure  
Sea Level Pressure 29.97 in    
Wind  
Wind Speed 7 mph ()    
Max Wind Speed 13 mph    
Max Gust Speed -    
Visibility 6.9 miles    
Events Rain    
Averages and records for this station are not official NWS values.
T = Trace of Precipitation, MM = Missing Value Source: Averaged Metar Reports

Daily Weather History Graph

Daily Weather History Graph

Search for Another Location

Airport or City:

Trip Planner

Search our weather history database for the weather conditions in past years. The results will help you decide how hot, cold, wet, or windy it might be!

Date:

Astronomy

Sep. 20, 2013 Rise Set
Actual Time 7:25 AM CEST 7:45 PM CEST
Civil Twilight 6:51 AM CEST 8:18 PM CEST
Nautical Twilight 6:11 AM CEST 8:58 PM CEST
Astronomical Twilight 5:29 AM CEST 9:40 PM CEST
Moon 7:53 PM CEST (9/20) 8:35 AM CEST (9/20)
Length of Visible Light 13h 27m
Length of Day
12h 20m
Full, 99% of the Moon is Illuminated
Sep 20
Full
Sep 27
Last Quarter
Oct 5
New
Oct 12
First Quarter
Oct 19
Full

Hourly Weather History & Observations

Time (CEST) Temp. Dew Point Humidity Pressure Visibility Wind Dir Wind Speed Gust Speed Precip Events Conditions
12:25 AM 57.2 °F 55.4 °F 94% 29.77 in 6.2 mi SSW 6.9 mph - N/A   Unknown
12:55 AM 57.2 °F 55.4 °F 94% 29.77 in 6.2 mi SW 6.9 mph - N/A   Partly Cloudy
1:25 AM 57.2 °F 57.2 °F 100% 29.77 in 6.2 mi SW 8.1 mph - N/A   Mostly Cloudy
1:55 AM 57.2 °F 55.4 °F 94% 29.77 in 6.2 mi SW 5.8 mph - N/A   Scattered Clouds
2:00 AM 56 °F 56 °F 98% 29.80 in 7 mi SW 4.5 mph - - Rain Drizzle
2:25 AM 55.4 °F 53.6 °F 94% 29.77 in 6.2 mi WSW 5.8 mph - N/A   Partly Cloudy
2:55 AM 57.2 °F 53.6 °F 88% 29.80 in 6.2 mi West 5.8 mph - N/A   Unknown
3:25 AM 57.2 °F 51.8 °F 82% 29.80 in 6.2 mi West 4.6 mph - N/A   Mostly Cloudy
3:55 AM 55.4 °F 51.8 °F 88% 29.80 in 6.2 mi West 5.8 mph - N/A   Scattered Clouds
4:25 AM 57.2 °F 51.8 °F 82% 29.80 in 6.2 mi West 4.6 mph - N/A   Overcast
4:55 AM 57.2 °F 51.8 °F 82% 29.83 in 6.2 mi West 5.8 mph - N/A   Scattered Clouds
5:25 AM 57.2 °F 51.8 °F 82% 29.83 in 6.2 mi West 6.9 mph - N/A   Mostly Cloudy
5:55 AM 59.0 °F 51.8 °F 77% 29.83 in 6.2 mi West 6.9 mph - N/A   Partly Cloudy
6:25 AM 59.0 °F 53.6 °F 82% 29.86 in 6.2 mi WNW 8.1 mph - N/A   Partly Cloudy
6:55 AM 59.0 °F 51.8 °F 77% 29.86 in 6.2 mi WNW 6.9 mph - N/A   Partly Cloudy
7:25 AM 57.2 °F 51.8 °F 82% 29.86 in 6.2 mi West 6.9 mph - N/A   Partly Cloudy
7:55 AM 59.0 °F 51.8 °F 77% 29.89 in 6.2 mi West 8.1 mph - N/A   Mostly Cloudy
8:00 AM 58 °F 53 °F 77% 29.90 in 12 mi West 6.7 mph - -   Partly Cloudy
8:25 AM 59.0 °F 53.6 °F 82% 29.89 in 6.2 mi West 8.1 mph - N/A   Scattered Clouds
8:55 AM 59.0 °F 53.6 °F 82% 29.89 in 6.2 mi West 8.1 mph - N/A   Unknown
9:25 AM 59.0 °F 53.6 °F 82% 29.92 in 6.2 mi WNW 8.1 mph - N/A   Overcast
9:55 AM 59.0 °F 53.6 °F 82% 29.92 in 6.2 mi West 8.1 mph - N/A   Overcast
10:25 AM 60.8 °F 53.6 °F 77% 29.92 in 6.2 mi West 8.1 mph - N/A   Partly Cloudy
10:55 AM 59.0 °F 53.6 °F 82% 29.95 in 6.2 mi WNW 8.1 mph - N/A   Overcast
11:00 AM 60 °F 53 °F 72% 29.96 in 13 mi WNW 8.9 mph - -   Overcast
11:25 AM 60.8 °F 53.6 °F 77% 29.95 in 6.2 mi WNW 10.4 mph - N/A   Mostly Cloudy
11:55 AM 59.0 °F 51.8 °F 77% 29.98 in 6.2 mi WNW 11.5 mph - N/A   Overcast
12:25 PM 60.8 °F 51.8 °F 72% 29.98 in 6.2 mi West 10.4 mph - N/A   Overcast
12:55 PM 59.0 °F 53.6 °F 82% 29.98 in 6.2 mi WNW 10.4 mph - N/A   Overcast
1:25 PM 59.0 °F 53.6 °F 82% 30.01 in 6.2 mi West 12.7 mph - N/A   Mostly Cloudy
1:55 PM 59.0 °F 55.4 °F 88% 30.01 in 6.2 mi West 9.2 mph - N/A Rain Light Rain
2:00 PM 60 °F 55 °F 79% 30.02 in 16 mi West 11.2 mph - - Rain Rain
2:25 PM 59.0 °F 55.4 °F 88% 30.01 in 6.2 mi West 11.5 mph - N/A   Mostly Cloudy
2:55 PM 60.8 °F 55.4 °F 82% 30.04 in 6.2 mi West 12.7 mph - N/A   Mostly Cloudy
3:25 PM 60.8 °F 53.6 °F 77% 30.04 in 6.2 mi WNW 10.4 mph - N/A   Mostly Cloudy
3:55 PM 60.8 °F 51.8 °F 72% 30.04 in 6.2 mi WNW 10.4 mph - N/A   Overcast
4:25 PM 60.8 °F 51.8 °F 72% 30.06 in 6.2 mi NW 12.7 mph - N/A   Overcast
4:55 PM 60.8 °F 53.6 °F 77% 30.06 in 6.2 mi NW 11.5 mph - N/A   Overcast
5:00 PM 60 °F 51 °F 64% 30.08 in 16 mi NW 8.9 mph - -   Partly Cloudy
5:25 PM 60.8 °F 50.0 °F 68% 30.06 in 6.2 mi WNW 8.1 mph - N/A   Overcast
5:55 PM 59.0 °F 51.8 °F 77% 30.09 in 6.2 mi NW 8.1 mph - N/A   Overcast
6:25 PM 59.0 °F 51.8 °F 77% 30.09 in 6.2 mi WNW 9.2 mph - N/A   Overcast
6:55 PM 59.0 °F 51.8 °F 77% 30.09 in 6.2 mi NW 8.1 mph - N/A   Overcast
7:25 PM 59.0 °F 51.8 °F 77% 30.12 in 6.2 mi WNW 8.1 mph - N/A   Overcast
7:55 PM 59.0 °F 50.0 °F 72% 30.12 in 6.2 mi WNW 5.8 mph - N/A   Overcast
8:00 PM 58 °F 51 °F 70% 30.14 in 25 mi WNW 4.5 mph - -   Partly Cloudy
8:25 PM 57.2 °F 50.0 °F 77% 30.12 in 6.2 mi WNW 4.6 mph - N/A   Overcast
8:55 PM 55.4 °F 50.0 °F 82% 30.15 in 6.2 mi West 3.5 mph - N/A   Partly Cloudy
9:25 PM 53.6 °F 50.0 °F 88% 30.15 in 6.2 mi WSW 3.5 mph - N/A   Partly Cloudy
9:55 PM 51.8 °F 50.0 °F 94% 30.15 in 6.2 mi WSW 3.5 mph - N/A   Overcast
10:25 PM 51.8 °F 50.0 °F 94% 30.15 in 6.2 mi SW 3.5 mph - N/A   Unknown
10:55 PM 51.8 °F 50.0 °F 94% 30.18 in 6.2 mi SW 2.3 mph - N/A   Partly Cloudy
11:00 PM 50 °F 50 °F 98% 30.18 in 9 mi SSW 2.2 mph - -   Mostly Cloudy
11:25 PM 50.0 °F 50.0 °F 100% 30.18 in 6.2 mi Variable 1.2 mph - N/A   Partly Cloudy
11:55 PM 50.0 °F 50.0 °F 100% 30.18 in 6.2 mi SW 1.2 mph - N/A   Scattered Clouds